Wind_Speed
10 14 17 14 9 7 9 6 4 5 7 8 12 13 11 12 14 15 18 18 13 12 15 13 7 8 9 9 10 8 6 6 5 5 5 5 4 4 5 3 1 1 2 1 2 6 6 5 4 4 4 4 4 5 5 6 7 8 9 9 8 8 9 9 11 11 12 14 15 17 19 20 21 21 21 20 20 20 21 22 23 23 22 21 23 23
12 15 17 13 9 9 10 9 10 4 6 9 9 11 10 11 11 13 18 18 15 14 16 15 13 12 9 7 10 10 8 8 8 7 7 6 5 4 6 6 5 4 3 2 1 3 4 5 5 5 5 4 4 5 5 6 6 7 8 8 8 8 8 9 10 11 12 13 15 16 17 18 19 20 20 20 20 20 20 21 22 22 20 20 21 22
16 17 16 10 7 9 8 10 12 12 6 13 9 11 11 5 6 8 11 12 14 18 17 17 18 16 10 7 9 11 9 7 8 9 7 6 6 6 6 6 7 6 3 2 2 2 3 4 5 6 6 5 5 6 6 6 6 7 7 8 8 9 9 9 10 11 12 13 14 14 16 17 18 18 18 18 19 20 20 21 21 22 21 20 20 21
16 13 10 6 9 9 9 10 12 15 8 10 9 12 10 5 11 11 11 11 16 19 14 16 20 16 11 9 9 10 9 7 7 10 11 7 6 5 5 5 5 3 1 2 3 2 3 5 6 6 6 5 5 6 6 7 7 7 7 8 9 9 9 10 11 12 13 13 13 13 14 16 16 17 17 17 19 19 19 20 21 22 21 20 19 20
16 12 5 7 10 11 12 12 14 13 11 4 4 6 5 4 11 13 14 10 10 11 12 17 20 17 15 14 12 13 13 12 10 13 15 10 7 7 7 7 5 3 1 2 2 2 3 4 5 6 6 6 6 6 7 7 7 7 8 8 9 9 11 12 13 13 14 13 13 13 13 15 15 16 17 17 18 19 19 19 20 21 21 20 19 18
17 8 4 8 7 10 13 13 13 12 11 8 5 4 4 6 8 12 12 10 7 9 16 21 15 14 21 18 13 15 20 21 16 15 18 13 8 10 10 9 6 5 4 4 3 4 4 4 6 7 6 5 6 6 7 7 7 8 8 8 8 10 12 13 13 13 13 13 13 13 13 13 14 15 16 17 18 19 19 18 19 19 19 19 18 17
14 5 6 10 8 9 12 11 14 15 12 11 10 10 8 6 8 9 7 8 6 6 14 18 9 8 21 23 16 16 22 25 20 16 18 16 12 12 12 9 7 6 6 6 5 6 6 5 6 6 6 5 6 6 7 7 7 8 9 9 9 12 13 13 13 13 13 13 14 14 13 13 13 14 16 17 18 19 19 18 17 18 18 18 17 17
14 10 9 11 11 10 13 13 15 16 13 12 13 16 11 6 2 6 5 7 7 3 6 13 9 6 17 25 21 18 22 24 23 18 18 19 16 13 11 10 8 5 5 6 6 6 5 5 6 6 6 6 6 6 6 7 7 8 9 10 12 13 14 13 13 13 13 13 13 14 13 13 13 13 14 15 16 16 17 17 17 17 17 17 17 17
14 15 15 17 17 14 14 15 15 15 11 10 15 18 13 2 1 6 9 10 10 8 7 9 8 4 11 21 22 22 24 25 25 22 20 19 16 13 12 9 8 6 4 4 5 5 3 4 7 7 8 8 6 5 6 7 8 9 10 12 14 14 14 13 13 13 13 13 14 14 14 13 13 13 13 13 13 14 15 16 17 17 17 17 18 17
14 15 18 19 20 16 10 11 13 15 8 8 17 17 12 6 3 3 10 13 8 6 9 10 10 6 4 14 23 25 27 28 27 23 20 17 14 14 13 9 8 7 6 5 5 4 3 4 8 9 9 8 7 6 7 7 8 9 10 12 14 14 13 13 13 13 13 13 14 14 14 13 13 13 13 13 14 14 14 15 16 17 18 18 17 17
17 15 15 14 14 13 8 12 14 14 6 8 19 15 7 9 8 4 10 12 4 3 7 7 10 8 3 9 22 28 28 26 25 24 21 18 16 17 14 10 9 8 7 7 5 4 4 6 10 12 10 9 8 7 8 8 8 10 11 12 14 14 14 14 13 13 13 13 13 14 14 14 14 15 15 15 15 15 15 15 16 18 17 16 16 17
16 14 12 11 10 8 11 19 15 12 6 8 16 13 9 10 8 5 6 6 1 3 5 2 7 9 6 7 15 23 25 23 22 23 21 18 19 19 16 13 10 8 8 8 7 5 6 9 12 13 10 9 10 8 8 8 9 11 12 13 14 15 15 14 14 14 13 13 13 13 15 16 16 16 16 16 16 16 17 17 18 17 16 15 16 17
12 11 9 9 8 6 15 21 16 13 9 10 14 15 12 6 2 2 2 2 3 5 4 3 5 7 9 8 7 13 19 21 21 21 19 18 20 20 17 15 13 10 9 10 8 6 6 8 12 12 10 10 10 9 8 8 9 12 12 13 15 15 15 15 15 14 13 12 12 13 15 17 17 16 16 16 16 17 18 18 17 16 15 16 16 15
10 9 6 4 3 5 13 16 16 17 14 12 12 11 7 3 2 2 2 0 3 6 6 4 4 6 8 6 2 7 12 16 18 18 18 17 17 18 16 14 14 13 11 11 8 6 7 7 10 11 9 10 11 9 10 9 9 11 13 13 15 16 16 15 15 14 13 13 13 14 16 17 16 16 16 17 16 17 18 17 16 15 16 16 15 14
8 8 6 1 0 5 11 13 12 14 15 15 10 5 3 3 3 3 3 3 2 4 5 4 3 3 5 3 3 2 7 12 15 17 17 16 16 16 14 14 16 15 13 12 9 7 7 7 10 10 8 10 12 10 10 11 10 11 12 13 15 16 16 16 15 14 13 13 14 16 17 16 15 16 17 17 17 17 17 17 16 16 16 15 14 13
8 8 7 2 4 8 7 7 10 13 14 13 9 5 4 3 3 4 3 5 5 2 2 4 4 4 5 0 4 4 9 14 14 16 18 18 17 16 15 15 17 16 15 13 11 8 9 9 9 8 8 10 12 12 11 11 10 10 12 13 15 16 16 16 15 14 14 14 14 16 17 15 14 15 17 17 18 18 18 17 17 17 16 14 13 12
7 8 8 5 7 10 6 6 8 11 10 10 10 9 6 3 3 5 3 3 4 2 1 3 5 5 5 2 6 7 11 16 17 18 19 19 19 19 17 17 17 16 14 12 10 8 8 10 9 7 8 10 11 11 11 11 11 11 11 13 15 16 16 16 16 15 14 14 15 16 17 15 14 15 16 18 18 18 18 18 18 17 14 12 11 11
11 12 10 8 7 8 6 8 5 10 10 8 10 12 9 6 3 4 3 3 2 1 2 3 5 7 7 2 9 12 12 15 18 19 20 18 20 21 19 18 16 13 12 11 8 5 4 6 8 7 7 9 9 8 9 10 11 12 12 13 15 15 15 15 15 15 15 15 15 16 16 14 14 16 17 18 18 18 18 17 17 15 12 11 10 10
13 14 9 5 5 7 7 7 4 13 11 6 8 13 10 4 5 6 3 1 2 1 2 2 4 6 6 3 7 14 15 16 18 22 23 20 19 21 19 18 16 13 13 13 9 5 2 2 4 6 7 8 9 8 9 10 11 12 13 13 15 16 15 15 15 15 15 15 16 16 16 13 14 17 18 17 18 17 16 16 15 13 10 10 10 10
14 13 8 4 6 6 7 9 4 11 12 6 10 15 10 2 4 7 4 2 4 3 1 1 2 2 3 4 2 11 14 16 19 23 25 21 18 18 17 16 14 13 13 13 10 7 5 3 4 4 6 8 9 8 10 11 11 12 13 13 15 17 18 17 16 16 16 16 16 16 15 14 15 17 18 17 16 16 15 14 13 11 9 8 8 9
15 15 10 6 6 4 8 11 7 4 9 8 14 18 10 5 6 7 3 1 3 3 3 1 1 1 2 4 1 7 12 16 20 23 23 20 18 16 15 11 9 11 13 12 10 8 8 6 4 5 6 8 10 9 10 11 11 12 13 13 14 16 18 18 16 16 16 16 16 16 15 14 16 18 18 17 16 15 14 13 12 10 9 9 8 8
10 16 15 11 7 4 6 6 6 4 3 5 13 17 11 8 10 7 3 1 3 3 3 4 1 0 2 3 3 6 10 10 14 20 21 18 18 17 13 6 1 4 8 10 10 8 9 8 5 5 6 7 10 10 9 10 11 12 13 13 13 15 17 18 17 16 16 16 16 15 15 15 16 18 18 18 17 15 13 13 11 10 10 10 9 9
3 10 15 14 9 5 6 3 5 6 4 2 9 11 6 7 9 6 4 6 7 5 4 6 3 2 2 2 3 9 13 8 8 17 23 21 20 18 14 6 3 2 4 5 7 8 8 9 7 8 8 7 9 10 10 10 11 11 11 13 13 14 16 18 19 17 17 16 16 16 16 16 16 17 18 19 17 15 13 13 12 11 11 11 10 9
2 3 7 9 7 6 9 7 3 2 3 5 8 7 5 4 2 2 6 11 10 7 5 5 2 4 3 1 1 6 11 8 5 12 22 24 22 20 17 10 5 4 6 6 5 6 9 11 11 12 10 8 8 10 11 11 11 12 12 13 13 13 15 18 20 20 19 17 17 17 17 17 17 17 18 18 18 16 15 14 13 12 12 12 11 10
2 3 2 1 3 4 7 8 5 9 12 9 8 7 6 3 1 2 7 9 6 5 6 4 4 7 6 3 3 2 3 8 9 11 18 22 23 22 19 14 10 10 8 8 7 7 9 11 12 12 10 8 8 9 10 12 12 13 13 13 13 13 14 17 19 21 21 19 18 18 18 18 19 19 18 18 18 18 18 17 16 15 14 13 12 11
4 5 5 4 3 2 2 3 4 6 8 6 5 7 7 4 1 2 5 6 5 5 6 6 8 11 10 6 5 5 4 3 10 15 19 22 22 20 19 16 15 14 10 9 8 6 6 8 9 10 10 9 8 8 10 12 13 13 14 13 14 14 15 16 18 21 23 22 21 20 20 20 20 19 19 19 18 19 19 19 19 18 16 15 14 13
3 5 6 4 5 5 4 5 5 5 5 3 2 2 3 1 2 4 4 5 7 7 5 6 9 10 7 4 2 2 3 3 4 12 18 22 21 20 20 19 18 16 11 9 8 5 5 6 8 10 10 9 8 8 10 12 14 15 15 14 14 15 15 16 17 19 22 24 23 22 21 20 20 20 20 20 19 19 19 20 20 19 19 18 17 16
3 0 2 2 3 5 6 7 6 6 7 5 2 2 0 3 3 5 5 4 7 7 5 7 8 6 4 2 3 1 2 2 2 7 12 17 20 20 20 21 22 20 15 11 9 7 5 4 6 9 10 10 10 9 9 11 14 15 15 15 15 15 16 16 17 19 21 23 24 24 22 21 20 21 20 21 21 21 21 20 20 20 20 21 20 19
4 2 3 3 4 5 5 5 5 4 6 7 5 2 2 5 5 6 5 4 5 4 4 7 8 6 4 4 5 2 2 3 4 6 8 11 14 17 19 22 25 25 20 14 10 8 6 5 7 9 9 9 10 10 9 10 14 16 16 17 17 16 16 17 17 18 20 22 23 23 23 22 22 22 22 22 22 23 22 22 21 21 21 22 21 20
6 4 4 5 4 4 4 1 1 1 2 5 5 4 2 4 6 7 6 6 6 3 4 7 7 6 4 2 3 3 1 4 5 7 8 8 10 15 18 21 25 27 24 17 13 11 8 7 9 9 11 11 10 10 8 8 11 15 16 17 17 17 16 17 17 18 19 20 21 21 23 24 24 23 23 23 23 23 23 23 24 24 24 24 23 22
6 6 6 6 5 4 5 5 4 5 5 3 2 1 1 4 6 5 4 5 6 6 8 10 7 6 6 4 3 3 3 3 4 5 7 8 11 16 16 18 24 26 24 20 17 16 12 9 10 11 12 12 10 10 9 8 10 14 16 17 18 17 16 17 17 18 18 18 19 20 23 24 25 25 25 25 24 24 24 25 26 27 27 27 26 24
3 4 5 6 4 3 4 6 7 5 4 2 3 2 3 5 7 8 8 8 8 8 10 11 10 8 8 6 6 7 6 4 3 5 8 9 13 15 15 18 23 25 24 22 20 17 13 13 13 13 12 11 9 9 9 9 10 13 15 17 17 17 17 17 18 18 18 17 18 20 22 24 25 26 27 27 26 25 25 26 27 29 30 30 28 27
3 2 4 5 5 4 5 6 6 6 4 2 1 1 3 5 8 10 11 10 10 9 8 9 10 10 8 5 6 10 10 7 4 5 7 10 13 14 15 18 23 26 26 24 21 19 17 18 18 15 12 11 10 10 9 9 11 12 13 14 15 16 17 18 18 18 18 18 19 20 22 23 24 26 26 27 27 27 27 27 28 30 31 31 30 28
4 4 5 4 4 5 6 5 5 5 1 3 2 1 3 5 9 11 11 11 11 10 9 10 11 11 8 6 7 10 11 10 7 4 6 9 11 13 15 18 22 25 26 24 22 21 21 22 21 18 15 15 16 15 14 13 14 13 12 12 13 14 16 17 18 19 19 19 20 20 21 22 24 25 26 26 27 28 29 29 30 31 32 32 31 30
7 8 8 7 5 4 4 3 3 2 6 9 6 4 4 6 7 8 10 11 11 12 13 13 13 13 10 8 9 10 12 13 11 8 7 7 8 11 14 16 19 21 23 23 24 25 25 25 24 21 20 19 18 18 19 19 18 16 13 13 12 12 13 14 17 19 19 20 21 21 22 22 23 24 25 26 27 28 29 30 31 32 33 33 32 30
13 12 11 8 7 6 4 3 1 4 13 14 9 8 7 7 8 8 9 10 10 12 13 13 12 12 11 8 9 12 14 15 14 14 13 11 10 10 13 15 18 19 20 22 24 26 26 25 24 24 25 23 20 20 22 22 22 20 17 15 14 13 13 13 14 15 17 19 21 22 22 23 23 23 24 25 27 28 29 31 32 33 33 33 32 30
19 18 16 11 8 7 5 6 7 11 15 14 12 11 10 9 8 8 8 8 8 9 9 10 10 11 11 8 8 11 15 15 15 15 16 17 17 15 14 15 17 18 20 21 22 24 27 27 27 27 27 25 23 23 24 25 27 25 22 20 18 17 16 16 15 14 14 16 18 21 23 24 24 24 24 25 27 28 30 31 32 33 33 33 32 30
22 23 22 17 12 11 9 8 9 8 9 14 16 15 14 12 10 10 8 7 8 8 7 8 9 10 12 10 9 12 15 17 18 18 18 19 19 18 18 18 18 18 19 20 20 22 25 28 30 31 29 27 26 24 23 25 29 29 27 24 23 22 21 20 19 17 15 14 15 18 21 24 26 26 26 26 27 28 29 31 33 34 33 33 32 30
18 21 23 22 18 17 15 11 9 7 9 15 17 16 14 11 9 10 8 7 10 10 8 9 9 10 13 13 11 12 13 17 20 21 22 22 20 18 18 19 20 20 20 21 21 21 23 25 27 30 30 30 30 28 24 24 28 30 29 26 25 25 25 24 23 22 20 17 15 17 19 22 26 27 28 28 28 28 29 31 33 33 33 32 32 31
10 14 20 23 21 20 19 15 11 10 12 15 17 16 14 12 11 10 7 7 12 13 10 9 10 11 12 12 12 10 11 15 20 21 21 21 21 18 14 13 15 16 17 17 18 19 21 23 24 26 28 29 29 29 28 28 31 32 32 30 29 29 28 28 26 26 24 21 19 19 19 21 24 27 29 29 29 29 30 32 34 34 34 34 33 33
6 9 14 20 20 19 20 16 10 8 12 15 17 16 16 14 13 12 10 11 13 12 9 8 10 10 10 10 10 10 11 14 18 20 19 18 18 16 10 7 10 14 14 13 13 14 17 19 22 26 29 32 31 31 31 31 32 33 33 33 33 33 33 32 31 30 27 25 23 23 22 21 23 25 27 28 28 29 30 32 34 34 35 35 34 35
4 5 9 13 14 13 15 14 9 7 10 13 15 16 16 14 12 14 16 16 15 12 9 8 9 9 9 10 10 12 13 13 15 17 17 14 14 13 9 8 13 18 17 15 14 14 15 17 18 21 26 31 35 37 35 31 30 32 34 36 37 38 37 36 37 37 34 30 28 27 25 24 25 25 26 27 28 29 30 31 32 33 34 35 35 36
3 5 6 7 8 8 10 10 7 5 8 12 13 14 14 11 12 15 16 15 13 12 10 9 8 7 8 10 10 9 9 9 10 13 14 14 14 13 14 16 19 21 21 19 19 20 21 22 21 20 22 25 29 33 33 31 31 33 35 37 39 41 41 40 42 44 40 35 33 31 28 28 27 27 27 28 29 30 31 32 32 33 34 36 38 39
4 4 5 6 6 7 8 8 6 6 9 11 12 12 10 9 9 11 12 12 11 10 10 11 12 11 10 10 10 9 9 10 11 11 12 13 14 15 16 18 20 21 22 23 22 23 26 28 27 24 24 25 26 28 27 27 30 33 35 37 39 41 42 43 44 46 44 38 35 31 29 30 30 31 31 31 32 34 35 36 37 37 38 40 44 46
5 6 6 6 6 5 5 5 5 5 5 6 7 8 8 7 6 6 8 10 11 12 13 14 15 16 14 13 13 13 14 15 15 14 13 13 15 16 17 18 19 20 22 24 24 25 26 27 27 27 26 27 30 31 31 29 30 31 33 36 38 40 42 43 44 45 45 43 38 33 30 31 32 34 33 33 35 38 40 40 41 41 41 42 46 46
7 7 6 6 5 4 4 4 4 3 2 2 2 3 4 4 3 3 4 7 9 11 13 13 14 14 14 15 15 14 15 16 17 17 16 15 16 18 20 20 20 21 22 24 25 24 24 25 26 26 27 28 31 34 35 35 34 33 33 34 36 37 37 38 38 38 39 39 38 34 33 33 35 37 37 37 38 40 43 44 43 42 44 46 46 43
8 6 4 4 5 5 5 6 6 5 3 1 1 1 2 2 2 3 4 5 7 8 9 9 10 10 11 12 13 13 14 16 16 15 15 15 16 17 19 20 21 22 22 22 22 23 24 27 27 27 27 27 28 31 32 31 31 31 30 29 29 29 29 29 30 30 31 34 35 35 36 37 38 40 41 40 39 38 38 39 38 38 40 39 36 33
8 6 3 3 5 6 6 6 5 3 2 1 0 0 1 1 2 3 4 5 5 6 6 6 6 6 7 9 11 13 13 13 13 12 13 14 15 15 16 18 20 23 22 21 21 22 23 25 28 28 27 27 29 30 29 25 23 24 25 23 21 20 19 20 20 21 23 27 30 32 34 36 37 40 42 41 39 36 35 35 34 34 34 32 29 29
6 5 4 4 5 6 7 6 3 2 1 0 1 1 1 1 1 2 3 4 5 5 6 6 6 6 6 7 9 11 11 11 11 11 11 12 11 11 12 12 14 16 17 19 20 21 21 21 23 25 27 28 29 31 29 25 22 22 22 22 20 18 16 18 19 19 20 22 24 26 27 28 29 31 33 34 35 35 35 35 36 36 35 34 33 33
4 4 5 5 4 5 6 6 4 2 1 1 1 2 3 3 2 2 2 2 3 4 5 6 7 8 9 9 9 10 10 10 10 10 11 10 10 9 10 9 8 9 11 12 14 15 16 17 19 22 24 25 25 25 25 26 26 25 24 23 22 20 17 17 17 16 17 18 20 21 22 22 21 22 24 27 29 31 33 34 35 35 34 33 32 32
4 5 5 4 4 4 5 4 2 1 0 0 1 2 2 3 2 2 2 1 2 3 4 5 6 8 10 10 10 12 13 12 12 11 10 10 10 9 9 9 9 10 10 10 10 10 10 11 13 15 17 19 19 19 20 22 25 27 26 26 25 24 23 22 20 17 16 16 16 16 18 19 19 20 21 22 23 25 27 28 29 29 29 29 29 28
Wind_Direction
268 269 275 289 297 292 295 256 221 348 346 305 284 280 282 274 256 236 232 226 207 198 206 215 210 184 169 157 163 161 160 163 158 155 164 191 212 207 222 226 234 19 48 37 155 154 148 141 147 166 192 188 145 138 136 131 129 131 134 128 121 120 120 118 112 108 108 105 104 104 103 104 104 104 104 105 104 103 102 101 100 99 99 99 99 98
265 267 281 307 316 296 296 271 235 243 343 328 291 280 290 286 262 228 227 225 209 207 207 209 215 199 174 144 155 166 173 186 187 186 188 203 219 221 229 231 238 254 272 291 227 170 152 157 176 182 191 189 155 148 147 141 138 137 139 135 131 132 128 124 122 121 119 112 108 107 107 108 108 108 109 108 107 104 102 100 99 99 98 97 98 98
249 270 294 308 297 285 278 274 246 219 287 329 303 291 312 283 212 195 209 214 202 208 213 214 216 201 172 145 157 169 178 193 201 208 215 224 230 230 234 235 236 248 267 245 207 181 164 183 194 189 189 183 164 159 157 150 144 138 136 135 136 138 133 131 133 130 128 121 113 110 110 110 110 110 110 109 107 105 103 103 101 99 97 96 97 98
246 280 306 266 256 257 245 278 270 224 240 330 307 292 323 127 149 141 152 181 197 210 227 217 206 195 171 167 181 184 183 189 209 223 230 242 255 259 264 255 243 239 207 183 183 175 192 205 207 196 189 184 171 165 159 152 146 138 133 135 138 140 137 135 136 133 132 129 122 118 116 113 112 111 109 108 107 105 104 104 103 100 98 97 97 99
273 308 317 239 249 260 260 282 279 230 210 277 296 289 306 149 142 137 147 163 173 191 209 193 188 195 189 180 190 196 194 198 213 221 222 234 254 257 263 262 259 268 260 225 221 220 211 216 220 206 196 192 178 165 160 154 149 142 138 139 140 143 144 140 138 136 134 134 131 127 121 116 115 114 113 111 108 106 103 102 101 100 98 98 99 100
289 318 284 250 254 271 282 285 267 229 203 226 218 169 219 199 147 136 156 176 155 157 184 181 175 200 203 194 188 190 196 204 214 218 214 219 233 239 250 261 271 275 269 275 264 237 220 222 226 215 208 203 183 168 165 161 154 148 145 146 146 147 149 145 141 140 139 139 138 136 129 122 120 118 117 115 111 108 104 102 100 100 100 100 100 101
283 300 271 270 267 271 287 274 233 214 207 216 201 165 157 153 144 137 150 189 185 144 177 191 194 200 203 206 199 189 196 205 214 217 212 216 228 238 248 262 279 275 264 270 251 225 217 223 227 221 217 211 190 177 175 169 159 152 149 149 150 150 151 149 146 144 143 141 141 142 138 129 125 121 118 117 114 111 107 104 102 102 104 103 103 102
281 296 291 289 283 273 274 253 210 203 211 204 183 165 147 96 136 208 221 215 219 219 190 204 218 198 200 209 208 197 198 206 213 214 214 218 228 241 248 257 277 280 274 277 249 223 217 224 231 226 218 213 200 188 185 177 163 155 152 152 152 152 151 150 150 148 145 144 143 143 142 137 131 125 121 119 116 114 112 109 105 104 106 107 107 105
277 285 294 298 293 283 265 244 208 191 198 190 173 173 183 199 46 214 223 217 221 242 239 217 215 211 206 209 210 207 205 208 212 214 216 218 225 238 240 250 272 273 279 286 247 227 238 236 236 232 217 212 210 194 189 187 173 162 158 159 159 156 154 153 154 151 148 147 144 142 142 139 135 131 126 123 120 119 118 116 113 110 110 109 108 105
267 278 300 300 293 289 255 220 199 185 172 166 175 185 207 209 142 162 205 212 215 239 257 242 219 222 229 208 204 205 210 213 214 216 218 220 231 236 233 245 264 257 257 272 248 233 276 251 232 232 220 209 210 201 196 195 183 172 166 166 167 164 161 158 158 155 151 150 148 144 141 139 137 134 130 127 125 125 123 122 120 117 114 111 107 104
269 283 308 305 303 302 237 184 182 186 167 163 182 190 193 171 166 181 206 215 221 250 267 258 217 216 251 214 202 205 215 220 218 216 216 222 231 229 230 244 257 252 251 265 264 249 272 254 229 227 219 206 211 212 208 206 191 180 173 172 173 170 166 163 162 160 155 155 153 147 143 140 139 136 131 130 129 130 129 127 125 119 115 111 107 104
273 279 293 287 307 307 194 168 171 189 174 166 180 174 147 150 161 173 202 211 192 264 266 232 200 209 227 224 209 213 223 227 224 219 216 221 226 224 229 242 247 248 253 266 273 263 265 251 233 227 215 205 216 220 215 212 198 186 178 174 175 173 170 167 166 164 161 160 157 152 147 142 141 138 133 133 134 135 133 129 125 120 114 111 109 108
275 283 290 266 276 256 183 161 162 180 169 163 171 160 141 122 127 174 231 215 214 248 238 196 204 224 245 250 225 222 225 226 228 226 223 225 224 221 230 240 236 235 250 267 278 285 281 253 239 236 218 208 220 221 219 216 202 191 182 176 175 174 173 171 169 168 166 163 160 156 152 145 143 142 137 137 139 137 133 128 125 121 117 115 114 113
284 301 309 258 255 237 204 181 168 167 169 182 185 170 155 110 96 215 272 281 259 251 218 215 235 245 267 282 241 221 216 214 220 221 222 224 219 219 232 239 232 232 250 267 278 295 291 256 239 240 223 214 222 219 216 215 203 196 188 179 177 176 176 174 172 173 169 166 162 158 156 150 146 144 140 140 141 137 131 130 130 127 123 120 117 114
278 302 317 304 291 239 223 220 200 173 181 202 212 213 200 176 156 193 221 192 215 235 211 222 240 251 285 353 57 205 190 189 203 210 215 217 215 221 236 239 232 235 248 262 272 289 290 254 236 240 225 215 223 220 216 213 203 199 193 187 183 180 179 177 174 175 173 170 166 161 158 155 150 147 144 144 143 138 136 136 135 131 127 124 119 114
260 280 305 322 262 241 220 230 212 179 179 196 209 217 203 199 180 151 165 193 181 182 226 231 234 269 289 306 98 136 171 173 182 197 207 211 214 220 230 233 232 236 246 256 264 280 280 253 236 240 226 217 223 220 215 212 204 199 196 192 188 184 183 181 178 178 177 175 172 167 163 158 155 152 149 149 146 142 143 142 139 135 132 130 123 116
247 267 283 287 259 236 232 277 239 202 199 198 199 200 173 142 165 146 127 162 155 133 271 251 254 292 323 244 181 167 173 174 175 187 198 207 214 219 226 230 230 237 248 257 265 276 269 247 238 238 227 223 227 223 217 213 204 199 198 194 192 190 188 185 184 183 182 178 176 175 171 162 158 156 152 153 150 144 145 145 142 141 139 136 129 121
253 269 282 290 267 230 248 304 255 216 231 219 198 188 162 139 174 176 132 105 89 29 251 265 289 301 327 290 192 179 178 182 180 184 192 200 211 217 223 228 231 243 255 255 257 263 253 240 239 236 230 230 230 222 219 215 206 201 199 197 197 197 194 190 189 189 186 183 179 179 178 171 164 161 157 155 150 146 148 150 148 148 148 143 136 127
253 261 274 293 261 229 259 309 224 205 227 250 215 193 174 164 187 183 163 115 122 51 276 295 317 296 318 12 167 178 186 190 187 191 195 197 208 217 220 224 232 246 252 245 242 245 255 274 259 241 235 237 230 215 210 213 212 206 202 200 198 198 199 196 194 193 190 187 183 182 183 181 173 166 160 157 153 151 154 157 157 157 154 147 139 134
245 246 257 269 242 226 253 287 266 203 203 202 197 188 180 182 171 169 163 148 153 140 261 325 9 309 330 14 161 188 200 205 200 199 199 200 209 217 217 222 236 246 244 243 246 251 257 291 316 286 254 244 237 221 209 211 215 211 207 205 200 198 201 200 198 196 193 191 188 186 187 187 180 173 166 162 159 158 160 164 167 167 164 158 152 149
234 231 237 232 220 218 249 275 308 228 209 208 196 186 171 135 127 136 143 131 137 148 155 125 351 329 21 3 313 196 211 220 213 204 199 201 208 212 215 226 246 245 237 242 252 258 259 264 298 305 275 253 241 231 217 212 214 213 210 209 204 202 204 204 202 200 197 195 194 193 193 190 186 181 176 170 168 168 169 171 175 177 177 179 177 171
219 225 229 224 216 193 212 263 351 13 293 248 199 187 170 146 142 139 154 150 129 150 142 127 181 303 48 341 284 203 216 235 224 208 201 202 204 206 213 214 202 226 231 246 256 261 264 261 268 284 280 260 242 235 227 219 216 215 212 210 206 205 206 207 207 206 204 202 199 199 198 194 191 188 186 182 179 180 181 181 184 188 192 195 195 191
178 216 224 230 231 179 161 223 332 355 336 251 175 172 161 148 150 147 152 145 133 132 114 110 135 129 96 286 239 201 214 243 251 215 202 203 206 208 216 207 115 149 210 243 258 264 267 262 262 268 268 259 241 232 229 225 221 218 214 212 210 207 206 207 208 208 209 208 206 204 203 200 197 194 193 192 192 193 195 195 195 198 203 206 205 203
136 170 212 228 218 159 140 167 225 42 96 139 130 131 140 134 138 144 144 143 137 143 145 114 126 156 142 297 252 199 212 223 249 218 205 205 208 212 224 227 205 203 214 222 236 252 256 253 258 264 263 258 246 234 229 227 225 221 216 213 212 209 207 208 209 209 211 211 210 210 208 205 203 200 199 201 204 206 208 209 209 209 211 215 217 214
181 130 110 187 189 160 130 127 111 87 97 104 94 103 125 128 209 158 137 138 134 162 185 169 159 165 152 117 91 82 204 202 212 223 218 215 212 214 227 233 222 219 223 220 216 228 242 249 256 256 251 255 258 251 240 233 229 227 222 218 214 212 210 210 211 212 213 213 213 212 212 210 208 206 205 207 211 213 215 217 219 220 221 224 228 230
119 102 72 78 101 133 121 69 35 64 81 68 60 85 96 93 181 170 147 150 137 150 189 181 155 156 156 144 125 85 61 178 213 225 224 218 212 217 229 233 226 222 221 219 216 220 235 246 252 246 242 247 254 254 247 239 234 231 227 223 217 215 215 213 214 215 214 215 215 215 214 213 213 211 210 211 215 218 220 222 225 226 229 231 235 241
114 75 44 57 81 80 75 58 47 63 61 28 1 40 60 69 268 247 207 174 150 146 167 170 153 151 161 165 158 140 64 60 202 217 218 214 215 227 235 233 230 227 222 217 213 216 232 245 247 241 237 237 239 242 242 240 236 233 230 227 221 218 219 218 217 218 217 217 218 219 218 216 217 217 216 217 219 222 225 227 231 232 234 237 240 243
240 236 26 58 88 87 83 75 78 74 59 57 47 346 130 167 223 247 230 193 171 163 164 171 160 140 130 96 36 294 269 355 213 209 210 213 223 233 232 229 231 230 226 219 217 228 244 265 269 255 241 235 237 240 240 239 237 233 232 230 225 222 222 222 222 220 220 220 220 222 222 220 221 222 222 222 223 227 230 232 236 238 239 242 246 248
233 185 146 160 151 130 117 95 97 92 61 58 60 58 140 166 203 243 257 239 207 195 197 184 158 111 92 78 52 37 269 284 269 230 213 220 235 237 232 230 231 231 231 229 232 243 250 279 293 279 260 250 249 249 245 244 241 235 231 229 227 226 224 225 227 225 224 224 223 224 224 224 225 226 227 227 227 229 233 236 240 242 243 245 248 251
240 203 174 192 194 177 182 162 137 262 346 41 65 78 130 185 212 246 266 247 228 222 191 177 150 120 127 121 62 63 154 241 256 251 242 246 246 237 235 235 233 233 233 234 245 252 255 286 303 290 270 261 262 265 259 252 244 238 233 230 229 230 229 229 230 230 229 228 226 225 225 226 227 228 230 232 232 232 234 238 241 244 246 248 250 253
231 202 195 219 223 214 236 256 279 308 327 352 30 46 197 191 196 220 220 179 173 164 164 174 174 160 154 149 132 119 137 191 213 222 231 242 236 228 232 237 236 235 236 243 254 255 256 281 298 290 276 268 272 278 274 265 249 237 233 230 229 229 231 233 235 235 234 232 228 227 227 228 229 229 231 234 236 236 237 238 242 245 249 251 253 256
247 202 206 237 247 238 247 249 260 298 334 319 278 260 203 185 188 196 182 163 161 162 172 191 201 182 153 144 172 194 202 198 168 175 190 202 213 220 229 234 230 230 236 244 250 251 261 285 294 290 283 277 280 286 284 278 265 247 237 233 229 227 228 232 236 238 238 236 231 228 228 229 230 231 232 234 236 239 240 241 242 245 249 252 255 259
336 260 229 242 234 221 236 246 258 287 327 4 246 191 159 173 193 196 187 181 182 175 181 205 207 189 167 161 191 209 217 213 164 148 169 181 195 207 219 226 225 227 234 235 232 238 257 276 283 283 284 284 288 296 300 294 284 271 254 239 230 227 228 232 235 238 239 239 237 234 231 231 231 232 233 235 236 239 241 243 244 245 249 253 256 259
301 290 280 263 204 202 237 262 293 307 355 113 167 186 135 167 202 205 190 183 185 191 208 220 210 194 184 196 211 213 220 223 207 174 163 170 186 201 211 220 225 231 236 234 231 239 251 258 262 265 269 274 280 287 293 294 295 290 270 249 237 230 230 232 234 237 238 238 239 238 236 234 234 235 235 236 237 239 241 243 245 247 250 253 256 260
254 267 280 270 228 217 231 245 323 339 149 154 181 197 158 159 184 194 187 180 184 198 210 214 210 203 196 204 224 231 236 237 231 227 217 192 184 197 210 220 222 225 231 235 240 248 253 253 253 253 255 261 270 277 278 280 289 292 278 262 252 242 238 237 236 238 240 240 240 240 239 238 238 237 237 237 238 239 241 243 245 247 250 253 257 261
238 248 260 250 230 235 224 196 224 166 155 156 169 186 183 167 161 171 177 173 174 184 193 200 208 213 207 205 225 240 244 244 243 246 249 242 228 216 217 221 220 221 229 238 245 251 253 253 252 252 254 257 262 269 270 270 277 283 279 269 261 255 251 248 244 242 242 242 242 241 241 241 240 239 238 237 238 240 242 244 245 248 250 254 257 261
237 240 246 240 220 216 198 156 153 159 161 168 178 188 195 187 178 186 186 181 186 189 196 210 221 230 232 221 222 239 247 249 250 252 251 247 244 238 233 230 227 227 233 239 244 248 250 251 250 251 256 257 256 260 265 264 267 273 275 270 264 261 258 256 257 254 249 248 246 244 244 243 242 241 239 238 239 241 243 245 246 249 251 254 258 261
236 232 235 236 226 212 193 158 145 154 182 197 196 199 204 199 197 203 197 198 214 209 211 228 236 245 252 245 233 239 249 253 253 251 248 244 244 244 244 243 241 240 241 244 247 250 252 252 251 250 251 252 252 253 253 254 257 263 268 267 264 263 260 258 260 260 256 253 250 248 246 244 243 243 241 240 241 242 244 246 248 250 253 255 258 260
240 234 233 234 227 212 203 192 181 187 201 200 197 201 204 194 193 205 204 219 237 233 229 239 247 254 258 257 245 237 245 253 252 249 247 245 243 244 248 252 254 253 253 254 257 258 256 254 253 252 249 247 251 251 245 242 248 253 258 262 263 263 262 261 260 259 257 255 254 255 253 248 244 243 243 243 243 244 245 247 249 251 252 254 255 257
230 226 225 226 222 213 207 203 200 200 198 193 194 200 198 184 182 194 203 229 241 241 237 238 247 255 262 268 261 241 232 239 242 241 241 240 236 233 239 255 263 262 261 263 269 272 266 258 255 253 249 246 247 248 245 242 244 247 250 253 255 256 257 258 257 255 253 250 250 254 255 251 247 246 245 245 245 245 247 249 250 251 252 252 253 254
208 197 199 204 203 201 199 197 194 192 188 188 192 196 194 192 195 202 212 223 230 233 234 237 246 255 262 266 259 239 223 221 226 230 233 238 240 237 233 252 272 274 271 271 281 287 280 270 263 257 252 248 247 249 249 247 246 247 248 249 249 248 250 251 251 251 249 248 248 251 252 252 250 248 248 248 247 247 248 249 250 251 252 253 253 254
225 202 185 182 179 179 186 186 177 171 180 187 194 196 196 203 214 216 218 225 231 236 245 257 263 266 265 261 250 236 225 216 215 223 232 245 256 257 257 272 281 283 282 280 283 288 290 288 281 269 259 254 251 252 252 249 247 247 247 247 248 249 249 250 249 246 243 242 247 251 253 253 252 251 250 251 251 251 252 253 254 254 255 255 255 256
217 224 208 183 169 173 185 182 169 180 196 198 204 209 211 219 228 225 226 234 240 242 247 257 264 265 262 260 258 252 243 232 223 227 237 250 257 258 262 268 272 275 277 279 278 278 280 286 289 283 272 264 260 258 256 252 248 247 246 245 247 250 252 254 255 253 248 244 243 249 255 258 257 256 256 257 258 259 259 261 262 263 262 262 261 259
186 208 210 193 189 195 197 187 179 198 210 209 214 226 233 237 238 236 237 240 242 245 250 255 258 257 255 258 266 276 280 273 260 252 257 267 270 269 269 270 268 268 269 271 270 271 274 279 283 284 279 274 270 270 269 264 258 254 250 246 247 250 253 256 260 263 263 256 246 245 251 256 259 262 263 263 264 265 265 266 266 266 267 267 266 262
186 193 188 189 200 200 187 180 176 190 215 225 230 238 246 250 252 251 245 242 246 254 259 261 262 261 264 273 280 282 284 285 283 280 277 277 280 284 284 278 274 272 272 273 272 272 274 275 276 278 279 279 275 274 275 274 270 267 261 253 249 250 251 254 257 261 262 258 250 243 243 246 252 259 262 263 265 265 265 265 265 266 267 268 270 269
179 189 181 182 190 175 157 156 150 148 195 244 242 239 249 256 258 257 252 250 254 259 264 270 272 271 276 286 292 289 284 283 288 292 289 281 277 281 283 282 279 277 276 276 275 275 275 273 271 270 274 277 277 275 274 274 273 272 270 263 257 253 252 253 255 255 255 255 253 251 249 248 252 256 256 257 261 263 264 265 265 266 268 268 269 270
146 155 166 178 176 157 134 122 115 119 146 188 195 212 248 268 274 272 266 262 264 269 275 279 276 274 279 287 290 289 283 279 283 290 292 288 282 278 278 278 278 278 278 276 274 274 274 271 268 268 270 271 272 274 274 272 270 269 267 263 257 254 253 252 253 254 255 255 254 254 253 253 256 257 257 258 262 266 270 270 267 267 270 271 271 270
137 134 143 159 154 142 127 116 111 119 153 191 211 182 234 261 266 264 262 264 270 273 276 277 271 265 272 282 287 290 292 292 293 293 288 285 282 279 275 273 273 275 277 277 273 272 272 269 266 267 266 265 266 270 270 268 266 265 263 257 251 247 244 240 240 246 251 253 254 254 253 254 256 256 256 258 262 267 271 273 271 272 276 279 280 277
143 150 160 151 139 136 133 132 139 157 165 248 312 31 35 347 284 271 267 267 270 268 268 274 273 260 258 267 275 283 291 294 293 292 289 285 279 273 269 269 271 271 270 269 267 264 262 261 261 263 263 262 264 265 263 259 258 260 260 257 253 247 240 233 231 233 237 242 247 250 252 256 256 255 255 258 261 266 270 272 274 275 276 276 276 276
163 175 169 161 152 145 143 148 161 174 186 328 14 40 41 36 18 349 330 304 285 272 267 271 274 269 264 259 255 260 270 276 278 281 283 281 275 269 264 262 265 268 267 266 268 269 266 261 257 258 260 262 264 263 258 256 256 255 254 253 249 245 240 235 232 234 235 236 240 244 248 254 257 256 256 259 262 266 269 271 271 271 270 270 272 274
176 174 162 169 182 177 172 174 172 160 276 316 84 72 56 53 46 16 343 319 287 266 256 257 264 270 273 269 260 253 255 260 266 271 274 274 273 273 272 267 266 270 274 275 278 284 283 276 268 264 264 267 269 269 265 262 260 259 258 257 255 252 250 246 244 246 249 251 254 257 257 259 262 263 263 264 265 266 267 268 268 269 269 269 271 273
Height
3121 3121 3120 3120 3120 3120 3121 3123 3123 3122 3121 3120 3119 3118 3118 3118 3117 3117 3118 3119 3120 3120 3120 3121 3122 3122 3122 3121 3122 3123 3123 3123 3123 3124 3125 3126 3126 3126 3127 3127 3127 3128 3129 3129 3130 3130 3130 3129 3130 3131 3131 3132 3132 3132 3133 3133 3133 3134 3134 3134 3135 3135 3136 3136 3135 3136 3135 3135 3135 3134 3134 3133 3133 3132 3132 3132 3132 3132 3132 3131 3131 3131 3131 3131 3130 3130
3121 3120 3118 3118 3118 3119 3120 3121 3122 3121 3121 3120 3119 3118 3118 3117 3116 3116 3117 3119 3121 3120 3120 3121 3122 3122 3122 3122 3122 3122 3122 3122 3123 3124 3125 3126 3127 3127 3127 3127 3127 3128 3129 3129 3130 3129 3129 3129 3130 3131 3131 3132 3132 3132 3133 3133 3133 3134 3134 3135 3135 3136 3136 3136 3136 3136 3136 3136 3136 3136 3135 3135 3135 3134 3134 3134 3134 3134 3134 3134 3134 3134 3134 3134 3133 3133
3120 3118 3116 3116 3118 3118 3119 3119 3120 3121 3121 3119 3118 3118 3118 3116 3115 3116 3118 3119 3120 3120 3120 3120 3121 3122 3122 3122 3122 3122 3121 3121 3122 3123 3124 3126 3127 3127 3127 3127 3127 3128 3128 3129 3129 3129 3129 3130 3131 3131 3132 3132 3132 3132 3133 3133 3133 3134 3134 3135 3135 3136 3136 3137 3137 3137 3137 3137 3137 3137 3137 3137 3136 3136 3136 3136 3136 3136 3136 3136 3136 3136 3136 3136 3136 3135
3118 3116 3115 3115 3117 3118 3118 3118 3119 3120 3120 3119 3117 3117 3117 3116 3116 3117 3118 3120 3120 3120 3120 3119 3120 3122 3122 3122 3121 3121 3121 3121 3122 3123 3125 3126 3126 3127 3127 3127 3127 3128 3129 3129 3129 3129 3130 3130 3131 3131 3132 3132 3132 3133 3133 3133 3134 3134 3134 3135 3135 3136 3137 3137 3138 3138 3138 3138 3138 3138 3138 3138 3138 3138 3138 3138 3138 3138 3138 3138 3138 3137 3137 3138 3137 3137
3116 3115 3115 3115 3115 3116 3117 3118 3118 3119 3120 3119 3117 3117 3117 3116 3116 3117 3118 3120 3120 3120 3119 3119 3121 3122 3121 3121 3120 3120 3121 3121 3122 3123 3125 3126 3126 3126 3127 3127 3128 3128 3129 3130 3130 3130 3130 3131 3131 3132 3132 3132 3132 3133 3133 3133 3134 3134 3135 3135 3136 3136 3137 3138 3138 3139 3139 3139 3139 3139 3139 3139 3139 3139 3139 3139 3139 3139 3139 3139 3139 3139 3139 3139 3139 3139
3114 3113 3114 3114 3114 3115 3116 3117 3117 3118 3118 3117 3117 3117 3117 3117 3117 3117 3119 3120 3120 3120 3119 3119 3120 3121 3120 3120 3119 3119 3120 3121 3122 3123 3124 3125 3126 3126 3127 3127 3128 3128 3129 3130 3130 3130 3131 3131 3131 3132 3132 3132 3133 3133 3133 3133 3134 3134 3135 3135 3136 3137 3137 3138 3139 3139 3139 3140 3140 3140 3140 3140 3141 3141 3140 3140 3140 3140 3141 3141 3140 3140 3140 3140 3140 3140
3112 3112 3112 3113 3113 3114 3114 3114 3114 3115 3115 3115 3116 3117 3117 3116 3117 3118 3119 3119 3119 3119 3120 3119 3119 3119 3119 3119 3119 3119 3119 3120 3122 3122 3123 3124 3125 3125 3126 3126 3127 3128 3128 3129 3130 3130 3130 3131 3131 3131 3132 3133 3133 3133 3133 3134 3134 3134 3135 3135 3136 3137 3138 3139 3139 3140 3140 3140 3141 3141 3141 3141 3141 3142 3142 3142 3142 3142 3142 3142 3142 3142 3142 3142 3142 3142
3112 3111 3112 3112 3112 3113 3112 3111 3112 3113 3113 3113 3115 3117 3116 3116 3118 3119 3118 3118 3118 3118 3119 3119 3117 3117 3117 3118 3118 3119 3119 3120 3121 3121 3122 3123 3124 3125 3125 3126 3127 3128 3128 3129 3130 3130 3130 3131 3131 3131 3132 3133 3133 3133 3133 3134 3134 3134 3135 3136 3137 3137 3138 3139 3140 3140 3141 3141 3141 3142 3142 3142 3142 3142 3142 3142 3143 3143 3143 3143 3143 3143 3143 3143 3143 3144
3111 3110 3110 3110 3111 3111 3109 3109 3111 3112 3112 3112 3113 3115 3115 3115 3117 3117 3116 3117 3117 3117 3117 3117 3116 3116 3116 3116 3117 3118 3119 3119 3119 3119 3121 3122 3123 3124 3124 3125 3126 3127 3128 3129 3130 3130 3130 3131 3131 3131 3132 3133 3133 3133 3133 3134 3134 3135 3135 3136 3137 3138 3138 3139 3140 3140 3141 3141 3142 3142 3143 3143 3143 3143 3143 3143 3143 3143 3143 3143 3144 3144 3145 3145 3145 3145
3110 3109 3109 3109 3109 3109 3108 3108 3110 3111 3112 3112 3113 3114 3114 3114 3115 3115 3115 3116 3117 3117 3116 3115 3116 3115 3115 3114 3115 3117 3116 3116 3117 3118 3120 3121 3122 3123 3123 3125 3126 3127 3128 3129 3130 3130 3130 3131 3131 3131 3132 3133 3133 3133 3133 3134 3134 3135 3135 3136 3137 3138 3139 3139 3140 3141 3141 3142 3143 3143 3143 3144 3144 3143 3144 3144 3144 3144 3144 3144 3145 3146 3146 3147 3147 3147
3109 3109 3109 3108 3107 3107 3107 3107 3109 3110 3111 3111 3113 3114 3113 3114 3115 3115 3115 3116 3117 3117 3114 3114 3114 3115 3114 3113 3112 3113 3112 3112 3115 3117 3119 3120 3121 3122 3123 3124 3126 3127 3128 3129 3130 3130 3130 3131 3131 3131 3131 3132 3132 3133 3133 3134 3134 3135 3135 3136 3137 3138 3139 3139 3140 3141 3142 3143 3143 3144 3144 3144 3145 3145 3145 3145 3145 3145 3145 3146 3147 3147 3148 3148 3148 3148
3108 3108 3108 3107 3107 3107 3106 3107 3110 3111 3110 3110 3112 3113 3113 3115 3116 3116 3116 3116 3118 3116 3113 3112 3113 3114 3114 3111 3110 3111 3111 3112 3115 3116 3118 3119 3120 3121 3122 3124 3126 3127 3128 3129 3130 3130 3130 3131 3131 3130 3131 3131 3132 3132 3133 3134 3134 3135 3135 3136 3137 3138 3139 3139 3140 3141 3142 3143 3143 3144 3144 3145 3145 3145 3146 3146 3146 3146 3147 3148 3148 3149 3149 3149 3149 3149
3107 3107 3107 3107 3107 3107 3106 3107 3111 3111 3111 3111 3111 3111 3112 3115 3117 3117 3117 3117 3117 3114 3112 3112 3113 3113 3111 3109 3110 3110 3111 3112 3113 3115 3117 3118 3119 3120 3122 3124 3125 3126 3127 3129 3130 3130 3130 3131 3131 3130 3131 3131 3131 3132 3133 3134 3134 3135 3135 3136 3137 3138 3139 3139 3140 3141 3142 3143 3144 3144 3145 3145 3146 3146 3146 3146 3147 3147 3148 3149 3149 3149 3150 3150 3150 3150
3106 3105 3105 3105 3106 3106 3105 3105 3109 3111 3111 3110 3109 3109 3110 3114 3117 3118 3117 3116 3115 3112 3111 3112 3112 3111 3109 3108 3109 3109 3109 3111 3113 3115 3117 3117 3118 3120 3121 3123 3124 3126 3127 3128 3129 3130 3130 3130 3130 3130 3131 3131 3131 3132 3133 3133 3134 3135 3135 3136 3137 3138 3139 3139 3140 3141 3142 3143 3144 3145 3146 3146 3146 3146 3147 3147 3148 3148 3149 3150 3150 3150 3150 3151 3151 3151
3106 3105 3105 3105 3105 3106 3105 3103 3105 3106 3107 3108 3108 3108 3109 3110 3112 3113 3113 3113 3112 3111 3111 3112 3111 3110 3109 3108 3108 3109 3109 3110 3112 3114 3116 3117 3118 3120 3121 3123 3124 3125 3127 3128 3129 3129 3130 3130 3130 3130 3131 3131 3131 3132 3132 3133 3134 3134 3135 3136 3137 3138 3138 3139 3140 3141 3142 3143 3144 3145 3146 3146 3147 3147 3147 3147 3148 3149 3149 3150 3150 3151 3151 3152 3152 3152
3106 3105 3105 3105 3105 3105 3106 3105 3104 3104 3106 3107 3108 3108 3108 3108 3108 3109 3110 3110 3110 3110 3110 3110 3110 3109 3108 3108 3108 3109 3110 3110 3112 3114 3115 3117 3118 3120 3121 3122 3123 3124 3126 3127 3128 3129 3129 3129 3129 3130 3130 3131 3131 3131 3132 3132 3133 3134 3135 3136 3137 3138 3138 3139 3140 3141 3142 3143 3144 3145 3146 3146 3147 3147 3147 3148 3148 3149 3150 3150 3150 3151 3152 3152 3152 3152
3105 3105 3104 3104 3104 3104 3105 3105 3105 3105 3106 3107 3107 3107 3107 3107 3107 3108 3109 3110 3111 3111 3111 3109 3108 3108 3108 3108 3108 3109 3110 3110 3111 3113 3115 3116 3117 3119 3120 3121 3122 3124 3125 3126 3128 3129 3129 3128 3129 3129 3130 3130 3130 3131 3131 3132 3132 3133 3134 3135 3136 3137 3138 3138 3139 3141 3142 3143 3144 3145 3146 3146 3147 3147 3147 3148 3148 3149 3150 3150 3151 3151 3152 3152 3152 3152
3104 3103 3103 3103 3102 3102 3104 3103 3103 3104 3105 3105 3105 3105 3106 3106 3107 3108 3109 3111 3112 3113 3111 3109 3108 3108 3108 3107 3107 3109 3110 3110 3111 3112 3114 3116 3117 3118 3119 3120 3121 3123 3124 3126 3127 3128 3128 3128 3129 3129 3129 3130 3130 3131 3131 3131 3132 3133 3134 3135 3136 3137 3137 3138 3139 3140 3141 3142 3144 3145 3145 3146 3147 3147 3148 3148 3148 3149 3150 3150 3151 3151 3152 3152 3152 3152
3103 3102 3102 3102 3102 3102 3102 3102 3102 3103 3103 3103 3103 3103 3104 3105 3105 3106 3108 3110 3112 3113 3112 3109 3109 3109 3108 3108 3107 3108 3110 3110 3111 3112 3113 3114 3115 3116 3118 3119 3121 3122 3124 3125 3127 3127 3128 3128 3128 3128 3129 3129 3130 3131 3131 3131 3131 3132 3133 3134 3135 3136 3137 3138 3139 3140 3141 3142 3143 3144 3145 3146 3146 3147 3147 3148 3148 3149 3149 3150 3151 3151 3151 3151 3151 3151
3101 3101 3101 3102 3102 3101 3101 3101 3102 3102 3101 3102 3102 3102 3103 3104 3104 3105 3107 3107 3109 3112 3112 3110 3109 3109 3108 3109 3109 3109 3110 3111 3111 3112 3112 3113 3114 3115 3117 3119 3120 3121 3123 3124 3126 3127 3127 3128 3128 3128 3128 3128 3129 3130 3130 3130 3130 3131 3132 3133 3134 3135 3136 3137 3138 3139 3140 3141 3142 3143 3144 3145 3146 3146 3147 3147 3148 3148 3149 3150 3150 3150 3151 3151 3151 3151
3100 3100 3100 3101 3101 3101 3102 3101 3101 3101 3101 3101 3101 3102 3103 3103 3103 3105 3107 3107 3107 3109 3111 3110 3110 3109 3109 3109 3110 3110 3110 3110 3111 3111 3112 3113 3114 3115 3116 3118 3119 3121 3122 3123 3125 3126 3127 3127 3127 3127 3128 3128 3128 3129 3129 3130 3130 3130 3131 3132 3133 3134 3134 3136 3137 3138 3139 3140 3141 3142 3143 3144 3145 3146 3146 3147 3147 3148 3149 3149 3149 3150 3150 3150 3150 3151
3098 3099 3099 3100 3100 3100 3102 3102 3101 3101 3101 3100 3100 3101 3103 3103 3103 3105 3107 3107 3107 3107 3108 3109 3110 3109 3109 3109 3109 3109 3109 3109 3110 3111 3112 3112 3113 3114 3116 3118 3119 3120 3120 3122 3124 3125 3126 3126 3126 3126 3126 3127 3127 3127 3128 3129 3129 3129 3130 3131 3132 3132 3133 3135 3136 3137 3138 3139 3140 3141 3142 3143 3144 3145 3146 3146 3147 3147 3148 3148 3149 3149 3149 3150 3150 3150
3097 3098 3098 3099 3100 3100 3100 3102 3102 3102 3101 3101 3101 3102 3103 3103 3103 3104 3105 3106 3107 3107 3107 3108 3109 3109 3109 3109 3108 3108 3109 3109 3109 3110 3112 3113 3113 3114 3116 3117 3118 3119 3120 3121 3123 3124 3125 3125 3125 3125 3125 3125 3125 3126 3127 3127 3128 3128 3129 3130 3130 3131 3132 3133 3135 3136 3137 3138 3140 3141 3142 3142 3143 3144 3145 3145 3146 3146 3147 3147 3148 3148 3148 3149 3149 3149
3096 3097 3097 3098 3099 3099 3099 3101 3103 3102 3101 3101 3102 3103 3103 3103 3103 3103 3104 3104 3105 3107 3107 3107 3108 3109 3109 3108 3108 3108 3109 3109 3109 3110 3112 3113 3114 3115 3116 3117 3118 3118 3119 3121 3122 3123 3123 3124 3124 3124 3124 3124 3124 3124 3125 3126 3127 3127 3128 3128 3129 3130 3131 3132 3133 3135 3136 3137 3138 3139 3140 3141 3142 3143 3144 3145 3145 3146 3146 3146 3147 3147 3147 3148 3148 3148
3096 3096 3097 3097 3098 3098 3099 3100 3101 3102 3102 3102 3103 3103 3103 3103 3103 3104 3104 3104 3105 3106 3106 3106 3108 3108 3108 3108 3108 3108 3108 3108 3109 3110 3111 3112 3113 3114 3115 3116 3117 3118 3119 3120 3121 3121 3122 3122 3122 3123 3123 3123 3123 3123 3124 3125 3126 3126 3127 3127 3128 3129 3129 3130 3131 3133 3134 3135 3136 3138 3139 3140 3141 3142 3143 3144 3144 3145 3145 3145 3146 3146 3146 3147 3147 3147
3095 3096 3096 3097 3098 3099 3100 3100 3100 3101 3101 3102 3104 3104 3103 3103 3104 3104 3104 3104 3105 3106 3106 3106 3107 3108 3109 3109 3108 3108 3108 3108 3109 3110 3110 3111 3113 3114 3115 3116 3117 3118 3119 3119 3120 3120 3121 3121 3122 3122 3122 3123 3123 3123 3123 3123 3124 3125 3126 3126 3127 3127 3128 3129 3130 3131 3132 3133 3134 3136 3137 3138 3139 3140 3142 3142 3143 3143 3144 3144 3145 3145 3145 3145 3145 3145
3095 3096 3096 3097 3098 3099 3100 3100 3100 3100 3100 3102 3104 3104 3103 3103 3104 3105 3105 3104 3105 3105 3106 3106 3107 3108 3109 3109 3109 3108 3108 3109 3110 3110 3111 3111 3113 3114 3114 3115 3116 3117 3118 3119 3119 3120 3120 3121 3121 3121 3122 3122 3122 3122 3122 3122 3122 3123 3124 3125 3126 3126 3127 3127 3128 3129 3130 3131 3132 3134 3135 3136 3137 3139 3140 3141 3142 3142 3142 3143 3143 3143 3144 3144 3143 3143
3095 3095 3096 3097 3098 3098 3099 3099 3100 3100 3100 3101 3103 3103 3102 3103 3104 3105 3105 3104 3104 3105 3106 3107 3107 3108 3109 3109 3109 3108 3108 3109 3111 3111 3112 3112 3112 3113 3113 3114 3115 3116 3117 3118 3118 3119 3119 3120 3120 3121 3121 3121 3121 3122 3122 3121 3121 3122 3123 3124 3124 3125 3126 3126 3127 3128 3128 3129 3130 3132 3133 3134 3136 3137 3138 3139 3140 3140 3141 3141 3141 3141 3142 3141 3141 3141
3093 3094 3096 3097 3097 3098 3099 3099 3099 3100 3100 3101 3101 3102 3102 3103 3104 3105 3104 3104 3104 3105 3106 3107 3107 3108 3109 3109 3108 3108 3108 3109 3110 3111 3112 3112 3113 3113 3113 3113 3114 3115 3117 3117 3118 3118 3119 3119 3120 3120 3120 3121 3121 3121 3121 3121 3120 3121 3121 3122 3123 3123 3124 3125 3126 3126 3127 3128 3129 3130 3132 3133 3133 3134 3135 3136 3137 3138 3138 3139 3139 3139 3139 3139 3139 3139
3092 3093 3095 3096 3097 3098 3098 3098 3099 3099 3099 3100 3100 3101 3101 3102 3103 3103 3103 3103 3104 3104 3105 3106 3106 3107 3108 3109 3107 3107 3107 3108 3109 3110 3110 3111 3112 3112 3112 3112 3113 3114 3116 3117 3118 3118 3118 3119 3119 3119 3119 3120 3120 3120 3120 3120 3119 3119 3120 3121 3121 3122 3123 3123 3124 3125 3126 3126 3127 3129 3130 3131 3131 3132 3133 3133 3134 3135 3136 3137 3137 3137 3137 3137 3137 3137
3091 3092 3094 3095 3095 3096 3097 3097 3098 3098 3098 3098 3099 3100 3100 3101 3101 3102 3102 3102 3103 3104 3104 3105 3105 3106 3107 3108 3106 3106 3106 3106 3106 3107 3108 3109 3110 3110 3110 3111 3112 3114 3115 3116 3117 3117 3117 3117 3118 3118 3118 3118 3119 3119 3119 3119 3119 3119 3119 3119 3120 3121 3121 3122 3123 3124 3125 3126 3126 3127 3128 3129 3129 3130 3130 3131 3132 3133 3134 3134 3134 3134 3134 3134 3134 3134
3090 3091 3092 3093 3094 3095 3096 3096 3097 3098 3097 3097 3098 3099 3099 3099 3100 3100 3101 3101 3102 3103 3103 3104 3104 3105 3106 3106 3106 3106 3105 3105 3104 3104 3105 3107 3107 3108 3109 3110 3111 3112 3113 3114 3115 3116 3116 3116 3117 3117 3117 3117 3117 3118 3118 3118 3118 3118 3118 3118 3119 3119 3119 3120 3121 3122 3123 3124 3125 3125 3126 3126 3127 3128 3128 3129 3130 3130 3131 3132 3132 3131 3131 3131 3131 3132
3090 3091 3092 3092 3093 3095 3096 3096 3096 3096 3096 3097 3097 3097 3098 3098 3098 3098 3099 3100 3101 3101 3102 3103 3103 3104 3105 3105 3105 3105 3105 3105 3104 3104 3104 3105 3106 3107 3108 3108 3109 3110 3111 3111 3113 3113 3114 3114 3115 3115 3116 3116 3116 3116 3117 3117 3117 3118 3118 3117 3117 3117 3117 3118 3119 3120 3121 3122 3123 3123 3124 3124 3125 3125 3126 3127 3128 3129 3129 3129 3129 3129 3128 3129 3129 3130
3089 3090 3091 3091 3092 3093 3094 3094 3094 3095 3096 3097 3097 3097 3097 3097 3097 3097 3097 3098 3099 3099 3101 3102 3102 3103 3104 3104 3104 3104 3104 3103 3104 3104 3104 3104 3106 3107 3107 3108 3109 3110 3111 3112 3113 3112 3111 3111 3112 3113 3114 3115 3115 3115 3116 3116 3116 3116 3117 3116 3116 3115 3116 3116 3117 3118 3119 3119 3120 3121 3122 3122 3123 3123 3124 3125 3126 3126 3127 3127 3126 3126 3126 3126 3127 3127
3087 3088 3089 3089 3090 3091 3092 3093 3094 3094 3095 3096 3096 3096 3096 3096 3096 3097 3097 3097 3097 3098 3099 3100 3100 3101 3103 3103 3103 3103 3103 3102 3102 3103 3103 3104 3105 3106 3107 3107 3108 3109 3110 3111 3111 3110 3109 3109 3110 3110 3111 3112 3114 3114 3114 3114 3114 3115 3115 3115 3114 3114 3114 3114 3115 3115 3116 3117 3118 3119 3119 3120 3120 3121 3121 3122 3123 3123 3124 3124 3124 3123 3124 3124 3124 3125
3085 3086 3088 3088 3089 3090 3090 3091 3092 3094 3094 3095 3095 3095 3095 3095 3095 3096 3096 3097 3097 3098 3098 3098 3099 3100 3101 3102 3102 3102 3102 3101 3101 3101 3102 3103 3103 3105 3106 3106 3106 3107 3107 3108 3108 3108 3107 3107 3108 3108 3108 3109 3111 3111 3111 3111 3112 3113 3113 3113 3113 3113 3113 3113 3113 3113 3114 3114 3115 3116 3116 3117 3117 3118 3118 3119 3119 3119 3120 3120 3120 3120 3120 3121 3122 3122
3084 3085 3086 3087 3088 3088 3089 3090 3091 3093 3093 3094 3094 3094 3095 3095 3095 3095 3095 3096 3097 3097 3097 3098 3098 3099 3100 3101 3101 3101 3101 3101 3100 3101 3101 3101 3102 3102 3103 3104 3104 3105 3105 3105 3106 3106 3105 3106 3106 3106 3106 3107 3108 3108 3108 3108 3109 3110 3110 3111 3111 3111 3111 3111 3111 3112 3112 3112 3112 3113 3113 3113 3114 3114 3114 3114 3115 3115 3115 3115 3115 3116 3116 3117 3118 3119
3081 3082 3084 3085 3086 3087 3088 3089 3090 3092 3092 3091 3092 3093 3094 3094 3094 3094 3094 3095 3095 3096 3096 3097 3097 3097 3098 3099 3100 3100 3100 3100 3099 3100 3099 3099 3099 3100 3100 3101 3101 3102 3103 3103 3103 3103 3103 3103 3103 3103 3103 3104 3104 3104 3104 3104 3105 3106 3107 3108 3108 3108 3108 3109 3109 3110 3110 3110 3110 3110 3110 3110 3110 3110 3110 3110 3110 3110 3111 3111 3110 3110 3111 3112 3114 3114
3078 3079 3081 3082 3083 3084 3085 3086 3087 3088 3088 3089 3091 3092 3093 3093 3093 3093 3094 3093 3093 3094 3095 3095 3095 3095 3095 3096 3097 3097 3098 3098 3098 3097 3097 3097 3097 3097 3097 3098 3098 3099 3100 3100 3100 3100 3100 3100 3099 3100 3100 3100 3100 3099 3099 3099 3101 3102 3103 3104 3105 3106 3106 3106 3106 3107 3107 3108 3108 3107 3107 3106 3106 3106 3106 3106 3106 3106 3106 3106 3105 3106 3106 3107 3108 3109
3076 3077 3078 3079 3079 3080 3082 3083 3083 3084 3085 3087 3089 3090 3091 3092 3092 3092 3092 3091 3091 3092 3093 3093 3093 3093 3093 3093 3093 3094 3095 3095 3095 3094 3094 3094 3094 3094 3094 3095 3096 3097 3097 3097 3097 3097 3096 3096 3096 3096 3096 3096 3096 3096 3095 3096 3096 3097 3098 3099 3100 3101 3101 3102 3102 3103 3104 3104 3104 3104 3104 3103 3102 3102 3102 3102 3102 3102 3102 3101 3101 3101 3102 3102 3103 3103
3074 3074 3075 3075 3076 3077 3079 3080 3081 3082 3084 3085 3087 3088 3089 3090 3090 3090 3089 3088 3089 3090 3090 3091 3091 3091 3091 3090 3091 3091 3092 3092 3092 3092 3092 3092 3092 3092 3093 3093 3093 3094 3094 3094 3094 3094 3094 3093 3093 3093 3093 3092 3092 3092 3092 3092 3093 3094 3095 3095 3096 3096 3096 3096 3097 3098 3100 3101 3101 3100 3100 3100 3099 3098 3098 3097 3097 3097 3097 3097 3096 3097 3097 3097 3097 3096
3073 3074 3074 3074 3074 3076 3077 3078 3080 3081 3083 3084 3085 3086 3087 3087 3087 3086 3085 3086 3087 3089 3089 3090 3089 3089 3090 3089 3089 3089 3090 3090 3090 3090 3090 3090 3090 3091 3092 3092 3092 3091 3090 3090 3091 3091 3091 3090 3090 3090 3090 3089 3089 3088 3088 3090 3092 3091 3091 3091 3092 3091 3091 3091 3092 3092 3092 3094 3096 3097 3097 3096 3095 3095 3094 3093 3093 3092 3092 3092 3092 3093 3093 3093 3093 3091
3072 3073 3073 3073 3074 3075 3076 3077 3078 3080 3081 3083 3084 3084 3085 3085 3085 3085 3085 3086 3087 3088 3089 3089 3089 3089 3089 3088 3088 3088 3089 3090 3090 3090 3090 3089 3089 3089 3089 3089 3089 3089 3088 3088 3089 3089 3088 3088 3088 3087 3087 3087 3086 3085 3085 3088 3089 3087 3086 3087 3088 3088 3088 3089 3088 3088 3088 3089 3091 3092 3093 3092 3091 3091 3090 3090 3089 3088 3088 3088 3089 3089 3089 3089 3087 3086
3071 3072 3072 3072 3074 3075 3075 3075 3077 3078 3080 3081 3082 3082 3083 3083 3084 3085 3085 3086 3086 3087 3088 3089 3089 3088 3087 3087 3088 3088 3089 3089 3089 3089 3089 3089 3088 3088 3088 3088 3087 3087 3086 3087 3087 3087 3087 3086 3086 3085 3085 3084 3083 3082 3082 3084 3084 3083 3082 3083 3084 3084 3084 3085 3086 3087 3088 3089 3088 3089 3089 3088 3087 3087 3086 3086 3085 3085 3084 3085 3085 3085 3085 3084 3081 3080
3071 3071 3071 3072 3073 3074 3074 3075 3076 3078 3079 3080 3081 3081 3082 3082 3083 3084 3084 3085 3086 3087 3088 3088 3088 3087 3086 3086 3086 3088 3088 3087 3086 3087 3088 3088 3087 3086 3086 3086 3085 3085 3085 3085 3085 3085 3085 3085 3084 3084 3082 3082 3081 3079 3079 3080 3080 3080 3080 3080 3080 3080 3081 3081 3082 3083 3084 3084 3085 3085 3084 3083 3083 3083 3082 3082 3081 3080 3081 3081 3082 3082 3081 3079 3077 3077
3070 3070 3071 3072 3073 3074 3074 3075 3076 3078 3078 3079 3080 3080 3081 3081 3082 3082 3083 3084 3085 3085 3086 3086 3086 3086 3085 3085 3085 3086 3085 3085 3084 3084 3084 3085 3085 3084 3083 3083 3082 3082 3083 3083 3083 3083 3083 3083 3082 3081 3080 3079 3078 3077 3077 3077 3077 3077 3077 3077 3076 3076 3076 3076 3077 3077 3077 3078 3080 3081 3080 3079 3079 3079 3078 3077 3077 3076 3077 3078 3079 3078 3076 3073 3073 3075
3070 3070 3071 3072 3073 3074 3074 3075 3076 3077 3078 3079 3079 3080 3080 3080 3081 3081 3082 3082 3082 3083 3083 3083 3084 3084 3083 3083 3083 3082 3082 3082 3082 3081 3080 3081 3081 3080 3079 3079 3078 3079 3080 3081 3081 3081 3081 3080 3079 3078 3077 3076 3076 3075 3074 3073 3073 3073 3073 3073 3073 3073 3073 3072 3072 3073 3073 3074 3075 3076 3076 3075 3075 3075 3075 3074 3074 3074 3074 3075 3075 3075 3071 3070 3071 3074
3070 3071 3072 3072 3072 3073 3074 3075 3076 3077 3078 3079 3079 3079 3080 3080 3080 3080 3080 3081 3081 3081 3081 3081 3082 3082 3081 3081 3080 3079 3079 3079 3079 3079 3078 3077 3077 3076 3076 3075 3075 3075 3076 3076 3077 3078 3077 3076 3075 3074 3074 3073 3073 3073 3072 3072 3070 3069 3069 3069 3070 3070 3070 3070 3070 3070 3070 3070 3070 3071 3071 3071 3071 3071 3070 3070 3070 3070 3070 3070 3071 3070 3069 3070 3071 3072
3071 3071 3072 3073 3073 3073 3074 3075 3076 3077 3078 3078 3079 3079 3079 3079 3079 3079 3080 3080 3080 3080 3080 3080 3080 3080 3080 3079 3078 3077 3077 3077 3077 3077 3076 3076 3075 3074 3074 3073 3073 3073 3072 3072 3072 3073 3073 3073 3072 3070 3070 3070 3069 3069 3069 3069 3069 3068 3066 3066 3066 3067 3068 3067 3067 3067 3067 3067 3067 3067 3066 3066 3066 3066 3066 3066 3066 3065 3065 3066 3066 3067 3067 3068 3068 3069
3071 3071 3072 3073 3073 3074 3075 3076 3077 3077 3078 3078 3078 3078 3078 3079 3079 3079 3079 3079 3079 3079 3079 3079 3078 3078 3078 3078 3077 3076 3076 3075 3075 3075 3075 3074 3074 3074 3073 3073 3072 3072 3071 3070 3070 3070 3069 3069 3069 3068 3067 3066 3066 3066 3066 3066 3065 3065 3065 3064 3064 3064 3064 3064 3063 3063 3063 3063 3063 3063 3062 3061 3061 3062 3062 3063 3062 3062 3061 3062 3062 3063 3064 3064 3065 3065
3072 3072 3072 3073 3074 3074 3075 3076 3077 3078 3078 3078 3078 3078 3079 3079 3078 3078 3078 3078 3078 3078 3078 3078 3077 3077 3076 3076 3076 3076 3075 3075 3074 3074 3073 3073 3073 3072 3072 3072 3071 3071 3070 3070 3069 3069 3068 3067 3066 3065 3064 3063 3063 3062 3063 3062 3062 3061 3062 3062 3062 3062 3062 3061 3061 3060 3059 3059 3058 3058 3058 3057 3057 3057 3058 3058 3059 3059 3059 3059 3059 3060 3060 3060 3061 3061